Wind_Speed
23 23 23 23 23 23 23 24 24 24 25 25 25 25 25 25 26 26 26 27 27 28 29 29 30 31 32 33 34 35 36 36 37 36 36 36 36 35 34 34 33 32 31
24 24 25 25 25 25 25 26 26 26 26 27 27 27 27 27 28 29 29 29 30 30 31 31 32 33 34 35 36 37 37 38 38 38 37 37 37 36 35 34 34 33 32
26 26 26 26 27 27 27 27 28 28 29 29 29 29 29 30 30 30 31 32 32 32 33 34 34 35 36 37 38 38 38 39 39 39 38 37 37 36 35 34 34 33 32
29 29 29 29 29 29 29 29 30 30 30 31 31 31 31 32 32 33 33 33 34 34 35 36 36 37 38 39 39 40 40 40 40 39 38 38 37 36 36 36 34 33 31
31 31 31 31 30 31 31 31 32 32 32 32 33 33 34 35 35 35 35 36 36 36 37 38 39 40 40 40 41 41 41 41 40 39 39 38 37 37 36 36 34 32 31
33 33 33 33 33 33 33 34 34 34 34 34 35 35 36 37 37 38 38 38 38 39 40 40 41 42 42 42 42 42 42 41 40 39 39 38 38 37 36 35 33 32 31
36 35 35 35 35 35 36 36 36 36 37 38 38 38 38 38 39 39 39 39 40 41 42 43 43 44 43 43 43 43 41 40 40 40 39 39 39 37 36 35 33 32 30
38 38 38 38 38 38 38 38 38 39 40 40 40 40 40 39 40 41 42 42 43 43 44 44 45 45 44 44 44 43 41 40 40 40 40 39 38 36 35 34 33 31 30
39 39 39 40 40 40 40 41 41 41 41 41 41 42 42 42 42 42 42 43 43 44 45 45 45 46 45 45 44 43 42 41 40 40 39 38 37 36 34 33 32 31 29
41 41 41 42 42 43 43 43 42 42 42 42 42 43 44 44 44 43 43 44 44 44 44 45 45 45 44 44 43 43 42 41 40 40 39 37 36 35 34 33 32 30 29
43 43 44 44 44 44 44 43 43 44 44 45 45 45 45 44 45 45 44 44 44 45 45 45 44 44 43 43 43 43 42 41 40 39 38 37 36 34 34 32 31 29 27
46 45 45 46 46 46 46 47 47 47 47 47 47 46 46 46 46 46 46 45 45 45 45 45 44 44 44 43 43 43 42 41 40 38 37 36 35 34 33 31 30 28 27
47 47 47 48 49 48 47 47 47 47 47 47 47 47 47 47 47 47 47 47 46 46 45 45 45 45 44 43 43 42 41 40 39 38 37 36 34 33 32 30 29 28 27
49 49 49 49 50 49 48 48 48 48 47 48 48 48 48 47 47 47 47 47 47 47 46 46 46 45 44 43 43 42 40 39 38 37 36 35 33 32 31 29 28 27 26
51 50 50 50 51 50 49 49 49 49 49 48 47 47 47 47 47 48 48 48 48 47 46 45 45 44 44 43 42 41 40 39 38 37 36 34 33 31 30 29 28 27 25
50 50 50 51 50 50 50 50 50 49 49 48 47 47 47 48 47 48 48 47 47 47 46 44 44 43 43 42 42 41 40 39 37 36 35 33 32 31 29 28 27 26 24
50 50 50 50 50 50 50 50 50 50 50 50 50 49 48 48 48 47 47 47 47 46 45 44 43 42 41 41 41 40 39 38 36 35 34 32 30 29 28 27 26 25 24
49 50 50 51 50 50 50 50 50 50 50 50 49 48 47 47 47 46 46 46 45 44 43 42 41 41 40 40 39 38 37 36 34 33 32 30 28 28 27 26 25 24 24
49 50 50 50 50 50 49 49 48 48 48 48 47 47 46 45 45 44 44 44 43 43 42 41 41 40 39 38 38 37 36 34 33 32 30 29 28 27 26 25 25 24 24
48 48 48 48 48 48 47 47 46 45 45 46 46 45 45 44 43 42 42 42 42 41 41 40 39 38 38 38 37 36 34 32 31 31 29 28 27 26 25 25 24 24 23
47 47 47 46 46 45 44 44 44 44 44 44 44 44 43 42 41 41 41 41 40 40 39 38 37 37 37 36 35 33 32 31 30 29 27 26 26 25 25 25 24 24 24
47 46 45 45 45 44 44 43 43 43 42 42 42 41 40 40 40 40 40 40 40 39 38 37 36 35 34 33 32 32 31 29 28 27 26 26 26 26 25 25 25 24 24
46 45 45 45 44 44 43 43 42 42 42 41 40 40 40 40 40 40 39 39 38 37 36 35 34 33 32 32 31 30 29 28 28 27 27 27 26 26 25 25 25 25 25
43 43 43 43 43 42 42 42 41 41 41 40 40 40 40 39 39 38 37 37 35 34 34 33 32 31 31 30 29 28 28 28 28 28 27 27 26 26 26 25 25 25 25
41 41 41 41 41 41 41 41 40 39 39 39 39 39 38 38 37 36 35 34 33 32 31 31 30 30 29 29 28 28 27 27 27 27 27 26 26 26 26 26 26 26 26
39 39 39 39 39 39 39 38 38 38 38 38 37 37 37 36 35 34 33 32 31 31 31 30 30 29 28 28 28 27 27 27 27 27 27 27 27 27 27 27 27 27 27
Wind_Direction
253 256 259 261 262 265 267 270 272 274 276 278 279 281 283 285 287 289 291 293 295 296 298 300 301 303 305 307 308 309 310 311 312 312 312 311 310 310 310 310 310 309 308
255 257 260 263 265 267 269 272 274 276 277 278 279 280 282 284 287 289 290 292 293 295 297 299 301 302 304 305 306 307 308 309 309 310 309 309 309 309 309 309 309 308 306
256 259 261 264 266 268 270 272 274 276 277 278 279 281 281 283 285 287 289 290 292 293 295 297 299 301 302 304 305 305 306 307 307 308 308 307 307 307 307 307 307 306 304
257 260 262 265 267 269 270 272 274 276 277 279 280 281 282 283 284 286 288 290 291 293 294 296 298 300 301 302 303 303 304 305 305 306 306 306 306 306 305 305 305 304 302
257 259 262 265 267 269 270 272 273 275 276 278 279 280 281 283 284 286 287 288 290 291 293 295 297 298 299 300 301 302 302 303 303 303 304 304 304 304 304 304 303 302 301
256 259 261 264 267 269 270 272 272 273 275 277 279 280 281 283 285 285 286 288 289 291 293 294 295 297 298 299 300 300 300 301 301 301 301 301 302 302 302 301 301 300 299
257 260 263 265 267 268 269 271 272 274 275 276 278 279 281 283 284 284 286 287 289 290 292 293 295 296 297 298 298 299 299 299 299 299 299 300 300 300 300 299 299 299 298
257 260 263 265 267 268 269 271 273 274 276 277 278 278 279 281 283 284 286 287 288 290 291 292 294 295 295 295 296 296 296 296 297 297 298 298 298 298 298 297 297 297 297
257 260 264 266 267 268 269 271 273 275 276 276 278 280 281 282 283 284 285 287 288 290 291 292 293 294 294 294 294 294 294 295 296 296 297 297 297 297 296 295 295 295 293
259 261 264 267 268 270 270 272 274 275 276 277 279 281 282 283 284 283 284 286 287 289 290 291 292 292 293 293 293 293 293 294 295 295 295 295 295 295 295 294 294 293 290
261 263 266 268 270 272 272 273 275 275 276 278 280 281 283 284 284 285 286 286 287 289 290 291 292 291 291 291 291 292 292 293 293 293 293 293 292 292 292 292 291 290 288
263 265 267 268 269 271 272 274 275 276 277 279 280 281 282 283 283 285 286 287 288 289 290 290 290 290 290 289 290 291 291 291 291 291 291 291 291 291 290 289 289 287 286
263 265 266 268 270 271 273 274 275 276 277 278 279 280 282 283 283 285 286 287 288 289 289 289 289 289 289 289 289 290 290 290 289 289 289 289 289 289 288 288 286 285 284
263 265 267 268 270 271 272 273 275 276 277 279 280 280 282 283 284 285 286 287 287 288 288 288 288 288 288 288 289 290 289 289 288 288 288 287 287 286 286 285 284 283 281
264 266 267 269 270 271 272 274 275 276 278 280 280 280 282 283 284 285 285 286 287 287 287 287 287 287 287 288 288 289 289 288 287 287 286 285 284 284 284 282 281 280 280
265 266 266 267 269 271 272 274 275 276 277 278 278 280 282 282 283 284 285 286 285 286 287 286 286 285 286 286 287 287 288 287 286 285 284 283 282 282 281 280 279 278 277
264 265 266 268 270 271 273 274 274 275 276 277 278 280 281 281 282 283 284 285 286 286 286 286 285 285 285 286 286 286 286 285 285 284 282 281 280 279 278 278 277 275 275
265 266 267 268 270 272 273 274 275 275 276 277 278 280 280 281 282 283 284 285 285 286 286 286 286 286 286 285 285 285 285 284 284 283 280 278 276 277 276 276 274 274 273
265 266 268 269 270 271 273 274 275 276 276 277 279 280 280 281 282 283 284 284 285 286 286 286 286 286 285 284 284 284 283 282 282 280 277 274 274 274 274 275 274 273 272
266 266 268 268 270 271 272 273 274 275 276 277 278 278 279 280 282 283 284 284 285 285 286 285 284 284 284 284 283 282 281 280 279 277 274 272 272 272 272 273 273 272 272
266 267 267 268 270 270 271 272 274 275 275 276 277 278 279 281 283 284 285 285 285 285 285 284 283 283 282 282 281 280 279 279 277 274 272 271 270 271 272 272 272 271 272
266 267 267 268 269 270 272 273 274 275 276 276 278 280 281 282 284 285 286 285 285 284 284 283 282 282 281 281 280 279 278 277 274 272 271 269 269 270 270 271 272 272 272
265 266 266 268 269 270 272 273 275 275 276 277 279 280 282 283 284 285 285 285 285 284 283 282 281 280 279 279 279 278 276 274 272 271 270 270 269 269 270 271 271 271 271
264 265 266 268 268 270 271 273 274 276 277 278 279 280 281 282 283 284 284 283 283 282 281 280 279 279 278 279 279 277 274 272 272 271 271 270 269 269 270 271 271 272 272
264 265 266 268 268 269 270 272 275 276 276 277 278 279 280 281 282 282 282 282 281 281 280 279 278 279 279 278 277 275 273 273 272 271 270 269 269 269 270 271 272 272 273
265 266 266 268 268 270 271 272 273 275 276 277 277 278 279 280 280 281 280 280 280 279 279 279 278 278 278 276 275 275 274 273 272 271 270 269 270 270 271 271 272 273 275
Height
5847 5848 5849 5850 5851 5851 5851 5852 5852 5852 5852 5852 5851 5851 5850 5850 5849 5847 5846 5845 5843 5842 5840 5839 5836 5834 5832 5829 5827 5824 5821 5818 5815 5812 5809 5805 5802 5799 5796 5793 5790 5787 5784
5842 5843 5844 5845 5845 5846 5846 5846 5847 5847 5846 5846 5846 5845 5845 5844 5843 5842 5840 5839 5837 5836 5834 5832 5830 5828 5826 5823 5820 5817 5814 5811 5808 5805 5802 5799 5795 5793 5790 5787 5784 5781 5779
5836 5837 5838 5839 5839 5840 5840 5840 5840 5840 5840 5840 5840 5839 5839 5838 5837 5836 5834 5833 5831 5829 5827 5826 5824 5821 5819 5816 5813 5810 5807 5804 5801 5798 5795 5792 5789 5786 5783 5780 5777 5775 5772
5830 5831 5832 5833 5833 5834 5834 5834 5834 5834 5834 5834 5833 5833 5832 5831 5830 5829 5827 5826 5824 5823 5821 5819 5816 5814 5812 5809 5806 5803 5800 5797 5794 5791 5788 5785 5782 5779 5776 5773 5771 5768 5765
5823 5824 5825 5826 5826 5827 5827 5827 5827 5827 5827 5826 5826 5825 5824 5824 5823 5821 5820 5818 5817 5815 5813 5811 5809 5806 5804 5801 5798 5795 5792 5789 5786 5783 5780 5777 5774 5772 5769 5766 5764 5761 5759
5815 5816 5817 5818 5819 5819 5820 5820 5819 5819 5819 5819 5818 5818 5817 5816 5815 5814 5812 5811 5809 5807 5805 5803 5801 5798 5796 5793 5790 5787 5784 5781 5778 5775 5773 5770 5767 5764 5761 5759 5756 5754 5752
5807 5808 5810 5810 5811 5811 5811 5811 5811 5811 5811 5810 5810 5810 5809 5808 5807 5805 5804 5802 5800 5798 5796 5794 5792 5789 5787 5784 5781 5778 5775 5773 5770 5767 5764 5762 5759 5756 5754 5751 5749 5747 5745
5799 5800 5801 5802 5802 5803 5803 5803 5803 5802 5802 5801 5801 5800 5800 5800 5798 5797 5795 5793 5791 5789 5787 5785 5783 5780 5778 5775 5772 5769 5767 5764 5761 5759 5756 5753 5750 5748 5746 5743 5741 5740 5738
5790 5791 5792 5793 5793 5793 5794 5793 5793 5793 5793 5792 5791 5791 5791 5790 5790 5789 5786 5784 5782 5780 5778 5775 5773 5771 5768 5765 5763 5760 5758 5755 5752 5750 5747 5745 5742 5740 5738 5736 5734 5732 5731
5780 5782 5783 5783 5784 5784 5784 5784 5784 5784 5783 5782 5781 5780 5780 5779 5779 5779 5778 5775 5773 5771 5768 5766 5763 5761 5758 5756 5753 5751 5748 5746 5743 5741 5739 5736 5734 5732 5730 5728 5727 5725 5724
5771 5772 5773 5774 5774 5774 5774 5774 5774 5774 5773 5772 5772 5771 5770 5768 5767 5767 5767 5766 5763 5761 5758 5756 5753 5751 5748 5746 5744 5741 5739 5736 5734 5732 5730 5727 5725 5724 5722 5720 5719 5718 5716
5761 5762 5763 5763 5764 5764 5764 5764 5764 5763 5763 5762 5761 5760 5759 5758 5757 5756 5755 5755 5753 5751 5748 5746 5743 5740 5738 5736 5733 5731 5729 5727 5725 5722 5720 5719 5717 5715 5714 5712 5711 5710 5709
5751 5752 5752 5753 5753 5754 5754 5753 5753 5752 5751 5751 5750 5749 5748 5747 5746 5745 5744 5743 5742 5740 5738 5735 5732 5730 5727 5725 5723 5721 5719 5717 5715 5713 5711 5710 5708 5707 5706 5704 5703 5703 5702
5740 5740 5741 5741 5742 5742 5742 5742 5742 5741 5740 5740 5739 5738 5737 5735 5734 5733 5732 5731 5730 5729 5727 5725 5722 5719 5717 5715 5713 5711 5709 5707 5705 5704 5702 5701 5700 5699 5697 5696 5696 5695 5694
5728 5729 5729 5730 5730 5730 5731 5730 5730 5729 5729 5728 5727 5726 5725 5724 5723 5722 5720 5719 5718 5717 5716 5714 5711 5708 5706 5704 5702 5701 5699 5697 5696 5694 5693 5692 5691 5690 5689 5688 5688 5687 5687
5716 5717 5717 5718 5718 5718 5719 5719 5718 5718 5717 5716 5716 5715 5714 5713 5712 5710 5709 5707 5706 5705 5704 5703 5700 5697 5695 5693 5692 5690 5689 5687 5686 5684 5684 5683 5682 5682 5681 5680 5680 5680 5680
5703 5704 5705 5705 5706 5706 5707 5707 5706 5706 5705 5705 5704 5703 5703 5702 5700 5699 5697 5696 5694 5693 5692 5691 5689 5687 5685 5683 5681 5680 5678 5677 5676 5675 5674 5674 5673 5673 5673 5672 5672 5672 5672
5691 5692 5692 5693 5694 5694 5694 5695 5695 5694 5694 5693 5692 5692 5691 5690 5688 5687 5685 5684 5683 5681 5680 5679 5678 5676 5674 5673 5671 5670 5668 5667 5666 5665 5665 5665 5664 5664 5664 5664 5664 5664 5665
5679 5679 5680 5681 5681 5682 5682 5683 5682 5682 5682 5681 5681 5680 5679 5678 5677 5676 5674 5673 5671 5670 5669 5668 5667 5665 5664 5662 5661 5660 5659 5658 5657 5657 5656 5656 5656 5656 5656 5656 5657 5657 5657
5666 5667 5668 5669 5669 5670 5670 5671 5671 5670 5670 5670 5669 5669 5668 5667 5666 5664 5663 5662 5661 5659 5658 5657 5656 5655 5653 5652 5651 5650 5649 5649 5648 5648 5647 5648 5648 5648 5649 5649 5649 5649 5650
5655 5655 5656 5657 5658 5658 5659 5659 5659 5659 5659 5659 5658 5657 5657 5656 5654 5654 5652 5651 5650 5648 5647 5646 5645 5644 5643 5642 5641 5641 5640 5640 5639 5639 5639 5640 5640 5641 5641 5641 5641 5642 5642
5643 5644 5645 5646 5647 5647 5647 5648 5648 5648 5648 5647 5647 5646 5646 5645 5644 5643 5642 5640 5639 5638 5637 5636 5635 5634 5633 5633 5632 5632 5631 5631 5631 5632 5632 5632 5633 5633 5633 5633 5634 5634 5634
5632 5633 5634 5635 5636 5636 5636 5637 5637 5637 5637 5636 5636 5636 5635 5634 5633 5632 5631 5630 5629 5627 5627 5626 5625 5625 5624 5624 5623 5623 5623 5623 5623 5624 5624 5624 5625 5625 5625 5626 5626 5626 5627
5621 5622 5623 5624 5625 5625 5626 5626 5626 5626 5626 5626 5625 5625 5624 5624 5623 5622 5620 5619 5619 5618 5617 5616 5616 5616 5615 5615 5615 5615 5615 5615 5615 5615 5616 5616 5617 5617 5617 5618 5618 5618 5619
5610 5611 5612 5613 5614 5614 5615 5615 5615 5615 5615 5615 5615 5614 5614 5613 5612 5611 5610 5610 5609 5608 5608 5607 5607 5607 5606 5606 5606 5606 5607 5607 5607 5607 5608 5608 5609 5609 5609 5610 5610 5610 5610
5599 5601 5602 5602 5603 5604 5604 5605 5605 5605 5605 5605 5604 5604 5603 5603 5602 5601 5601 5600 5600 5599 5599 5599 5598 5598 5598 5598 5598 5598 5599 5599 5599 5599 5600 5600 5600 5601 5601 5601 5602 5602 5602